Regional Weather Roundup
Issued by NWS

Home | Current Version | Previous Version | Text Only | Print | Product List | Glossary Off
Versions: 1 2 3 4 5 6 7 8 9 10 11 12 13 14 15 16 17 18 19 20 21 22 23 24 25 26 27 28 29 30 31 32 33 34 35 36 37 38 39 40 41 42 43 44 45 46 47 48 49 50

000
ASUS43 KDTX 251710
RWRMI
MICHIGAN HOURLY REGIONAL WEATHER ROUNDUP
NATIONAL WEATHER SERVICE DETROIT/PONTIAC MI
100 PM EDT MON SEP 25 2017

NOTE: "FAIR" INDICATES FEW OR NO CLOUDS BELOW 12,000 FEET WITH NO
SIGNIFICANT WEATHER AND/OR OBSTRUCTION TO VISIBILITY.

MIZ047>049-052>055-059>063-066>070-074>076-081>083-251800-
SOUTHEAST LOWER MICHIGAN

CITY           SKY/WX    TMP DP  RH WIND       PRES   REMARKS
ADRIAN         SUNNY     88  58  36 SE5       30.06F
ALMA           MOSUNNY   88  49  25 SW6       30.06S
ANN ARBOR      MOSUNNY   88  62  41 S6        30.05F
BAD AXE        MOSUNNY   84  67  55 CALM      30.07F
CARO           MOSUNNY   86  65  48 CALM      30.05F
DETROIT CITY   SUNNY     86  65  49 CALM      30.05F
DETROIT        MOSUNNY   87  66  49 VRB3      30.06F
FLINT          SUNNY     88  62  41 SW7       30.05F
GROSSE ILE     MOSUNNY   79  71  77 S5        30.05F
HILLSDALE      MOSUNNY   86  55  35 CALM      30.07S
HOWELL         SUNNY     88  61  40 S6        30.06F

CITY           SKY/WX    TMP DP  RH WIND       PRES   REMARKS
JACKSON        MOSUNNY   87  57  35 CALM      30.06F
LAMBERTVILLE   SUNNY     88  64  45 CALM      30.05F
LANSING        MOSUNNY   87  57  35 CALM      30.06F
LAPEER         FAIR      89  59  36 CALM      30.06F
MASON          MOSUNNY   89  56  33 NW5       30.06F
MONROE         SUNNY     87  66  49 CALM      30.04F
MT. CLEMENS    PTSUNNY   83  72  70 E6        30.05F
PONTIAC        PTSUNNY   86  64  47 SE5       30.05F
PORT HOPE        N/A     74  68  81 E10       30.06F
PORT HURON     MOSUNNY   88  68  51 CALM      30.06F HX  91
TRI CITIES     MOSUNNY   86  66  51 CALM      30.06F
MIDLAND        FAIR      86  60  41 SW6       30.04F
TROY           SUNNY     89  62  40 S5        30.07F
SAGINAW HB     MOSUNNY   86  63  45 S5        30.04F
$$
MIZ043>046-050>051-056>058-064>065-071>073-077>080-251800-
SOUTHWEST LOWER MICHIGAN

CITY           SKY/WX    TMP DP  RH WIND       PRES   REMARKS
BATTLE CREEK   PTSUNNY   86  52  30 CALM      30.07F
BENTON HARBOR  MOSUNNY   86  60  41 SE5       30.03F
BIG RAPIDS     SUNNY     87  48  25 S6        30.04F
COLDWATER      SUNNY     86  53  32 SW6       30.06F
FREMONT        FAIR      87  57  36 W3        30.03F
HOLLAND        SUNNY     88  59  37 VRB6      30.04F
GRAND RAPIDS   MOSUNNY   88  54  31 SW7       30.04F
IONIA          FAIR      87  51  28 S6        30.04F
KALAMAZOO      PTSUNNY   84  53  34 CALM      30.06F
LUDINGTON      MOSUNNY   84  60  43 SW3       30.01F
MARSHALL       MOSUNNY   87  56  35 W5        30.06F
MOUNT PLEASANT SUNNY     90  51  26 SE3       30.04F
MUSKEGON       PTSUNNY   86  56  35 SW6       30.03F
SOUTH HAVEN    MOSUNNY   86  58  38 CALM      30.03F
$$
MIZ016>042-251800-
NORTHERN LOWER MICHIGAN

CITY           SKY/WX    TMP DP  RH WIND       PRES   REMARKS
ALPENA         MOSUNNY   87  65  47 VRB5      30.04F
BELLAIRE       SUNNY     85  58  39 S3        30.02F
CADILLAC       SUNNY     90  51  26 SW6       30.05F
CHARLEVOIX     MOSUNNY   83  60  46 S6        30.04F
FRANKFORT      SUNNY     84  58  41 W6        30.01F
GAYLORD        SUNNY     85  56  37 S10       30.06F
GRAYLING       SUNNY     86  55  34 S8        30.06F
HARBOR SPRINGS MOSUNNY   82  58  44 CALM      30.02S
HOUGHTON LAKE  SUNNY     85  58  39 SW5       30.07F
MANISTEE       SUNNY     88  61  40 VRB7      30.00F
OSCODA         MOSUNNY   84  68  58 E5        30.05F
PELLSTON       MOSUNNY   87  60  40 W8        30.02F
ROGERS CITY    MOSUNNY   88  58  36 S6        30.04F
TRAVERSE CITY  PTSUNNY   90  59  35 S5        30.00F
$$
MIZ007>008-015-251800-
EASTERN UPPER MICHIGAN

CITY           SKY/WX    TMP DP  RH WIND       PRES   REMARKS
KINROSS        SUNNY     83  64  52 W9        30.01F
MACKINAC ISLAN MOSUNNY   80  59  49 W7        30.02S
NEWBERRY       MOSUNNY   81  65  58 S7        29.99F
S. S. MARIE    SUNNY     84  64  50 SW8       29.99F
MUNISING         N/A     75  68  78 NE6       29.97R
$$
MIZ004>006-011>014-085-251800-
CENTRAL UPPER MICHIGAN

CITY           SKY/WX    TMP DP  RH WIND       PRES   REMARKS
MANISTIQUE     MOSUNNY   73  67  81 MISG      30.00S
MENOMINEE      MOSUNNY   77  66  68 SE6       29.99S
SAWYER-GWINN   CLOUDY    75  64  69 S3        30.00F
$$
MIZ001>003-009>011-084-251800-
WESTERN UPPER MICHIGAN

CITY           SKY/WX    TMP DP  RH WIND       PRES   REMARKS
IRON MOUNTAIN  SUNNY     83  64  52 CALM      29.98F
HOUGHTON       PTSUNNY   72  62  71 W13       29.98S
COPPER HARBOR    N/A     70  63  78 N15       29.96R
IRONWOOD       CLOUDY    69  62  78 N8        30.00S
$$

ABBREVIATIONS USED IN REMARKS
   TC - TEMPERATURE IN CELSIUS
  WCI - WIND CHILL INDEX
   HX - HEAT INDEX
  VSB - VISIBILITY





USA.gov is the U.S. government's official web portal to all federal, state and local government web resources and services.